Year,Month,Day,Hour,Minute,Value (Times are PST for temperature in C)
2011,05,06,00,00,8.20
2011,05,06,00,01,8.20
2011,05,06,00,02,8.20
2011,05,06,00,03,8.20
2011,05,06,00,04,8.20
2011,05,06,00,05,8.20
2011,05,06,00,06,8.20
2011,05,06,00,07,8.20
2011,05,06,00,08,8.20
2011,05,06,00,09,8.20
2011,05,06,00,10,8.10
2011,05,06,00,11,8.10
2011,05,06,00,12,8.20
2011,05,06,00,13,8.20
2011,05,06,00,14,8.20
2011,05,06,00,15,8.20
2011,05,06,00,16,8.20
2011,05,06,00,17,8.20
2011,05,06,00,18,8.20
2011,05,06,00,19,8.20
2011,05,06,00,20,8.20
2011,05,06,00,21,8.20
2011,05,06,00,22,8.20
2011,05,06,00,23,8.20
2011,05,06,00,24,8.20
2011,05,06,00,25,8.20
2011,05,06,00,26,8.20
2011,05,06,00,27,8.20
2011,05,06,00,28,8.20
2011,05,06,00,29,8.20
2011,05,06,00,30,8.20
2011,05,06,00,31,8.20
2011,05,06,00,32,8.30
2011,05,06,00,33,8.30
2011,05,06,00,34,8.30
2011,05,06,00,35,8.30
2011,05,06,00,36,8.30
2011,05,06,00,37,8.30
2011,05,06,00,38,8.30
2011,05,06,00,39,8.30
2011,05,06,00,40,8.30
2011,05,06,00,41,8.30
2011,05,06,00,42,8.30
2011,05,06,00,43,8.30
2011,05,06,00,44,8.30
2011,05,06,00,45,8.30
2011,05,06,00,46,8.30
2011,05,06,00,47,8.30
2011,05,06,00,48,8.20
2011,05,06,00,49,8.20
2011,05,06,00,50,8.20
2011,05,06,00,51,8.20
2011,05,06,00,52,8.20
2011,05,06,00,53,8.10
2011,05,06,00,54,8.10
2011,05,06,00,55,8.10
2011,05,06,00,56,8.10
2011,05,06,00,57,8.10
2011,05,06,00,58,8.20
2011,05,06,00,59,8.20
2011,05,06,01,00,8.20
2011,05,06,01,01,8.20
2011,05,06,01,02,8.30
2011,05,06,01,03,8.30
2011,05,06,01,04,8.30
2011,05,06,01,05,8.40
2011,05,06,01,06,8.40
2011,05,06,01,07,8.50
2011,05,06,01,08,8.50
2011,05,06,01,09,8.50
2011,05,06,01,10,8.50
2011,05,06,01,11,8.50
2011,05,06,01,12,8.50
2011,05,06,01,13,8.50
2011,05,06,01,14,8.50
2011,05,06,01,15,8.50
2011,05,06,01,16,8.50
2011,05,06,01,17,8.40
2011,05,06,01,18,8.40
2011,05,06,01,19,8.40
2011,05,06,01,20,8.40
2011,05,06,01,21,8.40
2011,05,06,01,22,8.40
2011,05,06,01,23,8.30
2011,05,06,01,24,8.30
2011,05,06,01,25,8.20
2011,05,06,01,26,8.20
2011,05,06,01,27,8.20
2011,05,06,01,28,8.20
2011,05,06,01,29,8.20
2011,05,06,01,30,8.10
2011,05,06,01,31,8.10
2011,05,06,01,32,8.10
2011,05,06,01,33,8.00
2011,05,06,01,34,8.00
2011,05,06,01,35,8.00
2011,05,06,01,36,8.00
2011,05,06,01,37,8.00
2011,05,06,01,38,8.00
2011,05,06,01,39,8.00
2011,05,06,01,40,7.90
2011,05,06,01,41,7.90
2011,05,06,01,42,7.90
2011,05,06,01,43,7.90
2011,05,06,01,44,7.90
2011,05,06,01,45,7.90
2011,05,06,01,46,7.90
2011,05,06,01,47,7.90
2011,05,06,01,48,7.90
2011,05,06,01,49,7.90
2011,05,06,01,50,7.90
2011,05,06,01,51,7.80
2011,05,06,01,52,7.80
2011,05,06,01,53,7.80
2011,05,06,01,54,7.80
2011,05,06,01,55,7.80
2011,05,06,01,56,7.80
2011,05,06,01,57,7.80
2011,05,06,01,58,7.80
2011,05,06,01,59,7.80
2011,05,06,02,00,7.80
2011,05,06,02,01,7.70
2011,05,06,02,02,7.70
2011,05,06,02,03,7.70
2011,05,06,02,04,7.70
2011,05,06,02,05,7.70
2011,05,06,02,06,7.70
2011,05,06,02,07,7.70
2011,05,06,02,08,7.70
2011,05,06,02,09,7.60
2011,05,06,02,10,7.60
2011,05,06,02,11,7.60
2011,05,06,02,12,7.60
2011,05,06,02,13,7.60
2011,05,06,02,14,7.50
2011,05,06,02,15,7.50
2011,05,06,02,16,7.50
2011,05,06,02,17,7.40
2011,05,06,02,18,7.40
2011,05,06,02,19,7.40
2011,05,06,02,20,7.30
2011,05,06,02,21,7.30
2011,05,06,02,22,7.30
2011,05,06,02,23,7.30
2011,05,06,02,24,7.30
2011,05,06,02,25,7.30
2011,05,06,02,26,7.20
2011,05,06,02,27,7.20
2011,05,06,02,28,7.20
2011,05,06,02,29,7.20
2011,05,06,02,30,7.20
2011,05,06,02,31,7.20
2011,05,06,02,32,7.20
2011,05,06,02,33,7.20
2011,05,06,02,34,7.20
2011,05,06,02,35,7.20
2011,05,06,02,36,7.20
2011,05,06,02,37,7.20
2011,05,06,02,38,7.20
2011,05,06,02,39,7.20
2011,05,06,02,40,7.20
2011,05,06,02,41,7.20
2011,05,06,02,42,7.20
2011,05,06,02,43,7.20
2011,05,06,02,44,7.20
2011,05,06,02,45,7.20
2011,05,06,02,46,7.20
2011,05,06,02,47,7.30
2011,05,06,02,48,7.20
2011,05,06,02,49,7.20
2011,05,06,02,50,7.20
2011,05,06,02,51,7.20
2011,05,06,02,52,7.20
2011,05,06,02,53,7.20
2011,05,06,02,54,7.20
2011,05,06,02,55,7.20
2011,05,06,02,56,7.20
2011,05,06,02,57,7.20
2011,05,06,02,58,7.20
2011,05,06,02,59,7.20
2011,05,06,03,00,7.20
2011,05,06,03,01,7.20
2011,05,06,03,02,7.20
2011,05,06,03,03,7.20
2011,05,06,03,04,7.20
2011,05,06,03,05,7.20
2011,05,06,03,06,7.20
2011,05,06,03,07,7.20
2011,05,06,03,08,7.20
2011,05,06,03,09,7.20
2011,05,06,03,10,7.20
2011,05,06,03,11,7.20
2011,05,06,03,12,7.20
2011,05,06,03,13,7.20
2011,05,06,03,14,7.20
2011,05,06,03,15,7.20
2011,05,06,03,16,7.20
2011,05,06,03,17,7.20
2011,05,06,03,18,7.30
2011,05,06,03,19,7.20
2011,05,06,03,20,7.20
2011,05,06,03,21,7.20
2011,05,06,03,22,7.20
2011,05,06,03,23,7.30
2011,05,06,03,24,7.30
2011,05,06,03,25,7.30
2011,05,06,03,26,7.30
2011,05,06,03,27,7.20
2011,05,06,03,28,7.20
2011,05,06,03,29,7.20
2011,05,06,03,30,7.20
2011,05,06,03,31,7.20
2011,05,06,03,32,7.20
2011,05,06,03,33,7.20
2011,05,06,03,34,7.20
2011,05,06,03,35,7.20
2011,05,06,03,36,7.20
2011,05,06,03,37,7.20
2011,05,06,03,38,7.20
2011,05,06,03,39,7.20
2011,05,06,03,40,7.20
2011,05,06,03,41,7.20
2011,05,06,03,42,7.20
2011,05,06,03,43,7.20
2011,05,06,03,44,7.20
2011,05,06,03,45,7.20
2011,05,06,03,46,7.20
2011,05,06,03,47,7.30
2011,05,06,03,48,7.30
2011,05,06,03,49,7.30
2011,05,06,03,50,7.30
2011,05,06,03,51,7.30
2011,05,06,03,52,7.40
2011,05,06,03,53,7.40
2011,05,06,03,54,7.40
2011,05,06,03,55,7.40
2011,05,06,03,56,7.40
2011,05,06,03,57,7.40
2011,05,06,03,58,7.40
2011,05,06,03,59,7.30
2011,05,06,04,00,7.30
2011,05,06,04,01,7.30
2011,05,06,04,02,7.30
2011,05,06,04,03,7.30
2011,05,06,04,04,7.30
2011,05,06,04,05,7.20
2011,05,06,04,06,7.20
2011,05,06,04,07,7.20
2011,05,06,04,08,7.20
2011,05,06,04,09,7.20
2011,05,06,04,10,7.20
2011,05,06,04,11,7.20
2011,05,06,04,12,7.20
2011,05,06,04,13,7.20
2011,05,06,04,14,7.20
2011,05,06,04,15,7.20
2011,05,06,04,16,7.20
2011,05,06,04,17,7.20
2011,05,06,04,18,7.20
2011,05,06,04,19,7.20
2011,05,06,04,20,7.20
2011,05,06,04,21,7.20
2011,05,06,04,22,7.20
2011,05,06,04,23,7.20
2011,05,06,04,24,7.20
2011,05,06,04,25,7.20
2011,05,06,04,26,7.20
2011,05,06,04,27,7.20
2011,05,06,04,28,7.20
2011,05,06,04,29,7.20
2011,05,06,04,30,7.20
2011,05,06,04,31,7.20
2011,05,06,04,32,7.20
2011,05,06,04,33,7.10
2011,05,06,04,34,7.10
2011,05,06,04,35,7.10
2011,05,06,04,36,7.10
2011,05,06,04,37,7.10
2011,05,06,04,38,7.10
2011,05,06,04,39,7.10
2011,05,06,04,40,7.10
2011,05,06,04,41,7.10
2011,05,06,04,42,7.10
2011,05,06,04,43,7.10
2011,05,06,04,44,7.10
2011,05,06,04,45,7.10
2011,05,06,04,46,7.10
2011,05,06,04,47,7.10
2011,05,06,04,48,7.10
2011,05,06,04,49,7.10
2011,05,06,04,50,7.10
